Dubuque, IA

5:23 PM CDT on October 22, 2019 (GMT -0500)
Dubuque Regional

Weather History for KDBQ - August, 2019

Change the Weather History Date:

Thursday, August 15, 2019

  Actual Average Record
Temperature  
Mean Temperature 66 °F 70 °F  
Max Temperature 77 °F 80 °F 98 °F (1988)
Min Temperature 54 °F 61 °F 45 °F (1979)
Degree Days  
Heating Degree Days 0 0  
Month to date heating degree days 0 0  
Since 1 June heating degree days 29 48  
Since 1 July heating degree days 0 8  
Cooling Degree Days 1 6  
Month to date cooling degree days 82 95  
Year to date cooling degree days 535 495  
Since 1 June cooling degree days 509 458  
Growing Degree Days 16 (Base 50)    
Moisture  
Dew Point 59 °F    
Average Humidity 79    
Maximum Humidity 100    
Minimum Humidity 57    
Precipitation  
Precipitation 0.00 in 0.15 in 2.55 in (1907)
Month to date precipitation 3.10 2.16  
Year to date precipitation 29.21 23.74  
Snow  
Snow 0.00 in 0.00 in - ()
Month to date snowfall 0.0 0.0  
Since 1 June snowfall 0.0 0.0  
Since 1 July snowfall 0.0 0.0  
Snow Depth 0.00 in    
Sea Level Pressure  
Sea Level Pressure 30.03 in    
Wind  
Wind Speed 4 mph (SE)    
Max Wind Speed 10 mph    
Max Gust Speed 13 mph    
Visibility 8 miles    
Events      
T = Trace of Precipitation, MM = Missing Value Source: NWS Daily Summary

Daily Weather History Graph

Daily Weather History Graph

Search for Another Location

Airport or City:

Astronomy

Aug. 15, 2019 Rise Set
Actual Time 6:09 AM CDT 8:04 PM CDT
Civil Twilight 5:39 AM CDT 8:34 PM CDT
Nautical Twilight 5:02 AM CDT 9:11 PM CDT
Astronomical Twilight 4:22 AM CDT 9:51 PM CDT
Moon 8:33 PM CDT (8/15) 6:03 AM CDT (8/15)
Length of Visible Light 14h 55m
Length of Day
13h 54m
Full, 100% of the Moon is Illuminated
Aug 15
Full
Aug 23
Last Quarter
Aug 30
New
Sep 5
First Quarter
Sep 13
Full

Hourly Weather History & Observations

Time (CDT) Temp. Dew Point Humidity Pressure Visibility Wind Dir Wind Speed Gust Speed Precip Events Conditions
12:53 AM 60.1 °F 59.0 °F 96% 30.05 in 10.0 mi NNE 5.8 mph - N/A   Clear
1:53 AM 60.1 °F 59.0 °F 96% 30.05 in 10.0 mi North 5.8 mph - N/A   Clear
2:53 AM 59.0 °F 57.9 °F 96% 30.05 in 9.0 mi Calm Calm - N/A   Clear
3:53 AM 57.9 °F 57.9 °F 100% 30.04 in 6.0 mi Calm Calm - N/A   Clear
4:02 AM 57.9 °F 57.0 °F 97% 30.04 in 2.5 mi Calm Calm - N/A   Clear
4:10 AM 57.9 °F 57.0 °F 97% 30.05 in 10.0 mi Calm Calm - N/A   Clear
4:25 AM 55.9 °F 55.9 °F 100% 30.05 in 3.0 mi Calm Calm - N/A   Partly Cloudy
4:53 AM 55.9 °F 55.9 °F 100% 30.05 in 3.0 mi Calm Calm - N/A   Clear
5:22 AM 55.0 °F 55.0 °F 100% 30.05 in 2.5 mi Calm Calm - N/A   Partly Cloudy
5:34 AM 55.0 °F 55.0 °F 100% 30.05 in 3.0 mi Calm Calm - N/A   Partly Cloudy
5:53 AM 55.9 °F 55.0 °F 97% 30.04 in 10.0 mi NNE 5.8 mph - N/A   Clear
6:53 AM 57.9 °F 57.9 °F 100% 30.06 in 6.0 mi North 5.8 mph - N/A   Partly Cloudy
7:53 AM 64.0 °F 62.1 °F 93% 30.08 in 8.0 mi Calm Calm - N/A   Partly Cloudy
8:53 AM 68.0 °F 62.1 °F 81% 30.07 in 10.0 mi North 3.5 mph - N/A   Partly Cloudy
9:53 AM 70.0 °F 62.1 °F 76% 30.05 in 10.0 mi Calm Calm - N/A   Clear
10:53 AM 72.0 °F 61.0 °F 68% 30.05 in 10.0 mi North 4.6 mph - N/A   Scattered Clouds
11:53 AM 73.0 °F 60.1 °F 64% 30.05 in 10.0 mi NNE 4.6 mph - N/A   Clear
12:53 PM 73.9 °F 59.0 °F 59% 30.04 in 10.0 mi SE 4.6 mph - N/A   Mostly Cloudy
1:53 PM 75.0 °F 59.0 °F 57% 30.03 in 10.0 mi Variable 3.5 mph - N/A   Scattered Clouds
2:53 PM 73.9 °F 57.9 °F 57% 30.03 in 10.0 mi Variable 3.5 mph - N/A   Mostly Cloudy
3:53 PM 75.0 °F 60.1 °F 60% 30.00 in 10.0 mi South 6.9 mph - N/A   Clear
4:53 PM 73.9 °F 61.0 °F 64% 30.00 in 10.0 mi South 5.8 mph - N/A   Clear
5:53 PM 73.0 °F 61.0 °F 66% 29.99 in 10.0 mi South 5.8 mph - N/A   Partly Cloudy
6:53 PM 73.0 °F 61.0 °F 66% 29.98 in 10.0 mi South 5.8 mph - N/A   Scattered Clouds
7:53 PM 69.1 °F 63.0 °F 81% 29.96 in 10.0 mi South 6.9 mph - N/A   Scattered Clouds
8:53 PM 66.0 °F 62.1 °F 87% 29.96 in 10.0 mi SSE 5.8 mph - N/A   Clear
9:53 PM 64.0 °F 61.0 °F 90% 29.96 in 10.0 mi South 4.6 mph - N/A   Clear
10:53 PM 63.0 °F 61.0 °F 93% 29.97 in 10.0 mi South 3.5 mph - N/A   Partly Cloudy
11:53 PM 63.0 °F 60.1 °F 90% 29.96 in 10.0 mi South 5.8 mph - N/A   Partly Cloudy